星链-2034 (STARLINK-2034 )

导读 | 豆包AI

STARLINK-2034是美国太空探索技术公司(SpaceX)星链(Starlink)互联网星座项目中的一颗低轨通信卫星,于北京时间2021年1月20日发射入轨。 作为星链星座的组成部分,它旨在为全球偏远、基础设施薄弱地区提供高速低延迟互联网络,运行于近地轨道,目前已在轨飞行超过5年,持续拓展星链系统的全球覆盖能力,推动天基互联网服务落地。

基本信息
目录编号:
47352
目录名称:
STARLINK-2034
国际标识:
2021-005D
轨道中心:
EARTH
卫星名称:
星链-2034
卫星全名:
星链-2034 (STARLINK-2034 )
卫星状态:
在轨 (已飞行1879 天)
发射日期:
2021-01-20 UTC
国别 :
美国 (US)
星等 :
--
轨道信息
数据来源 国际轨道数据
星历时间: 2026-03-14T04:59:24+0800
13小时前
查看轨道信息
半长轴: 6853.326km
偏心率: 0.0001202
轨道倾角: 53.163°
近地点辐角 112.001°
升交点赤经 33.305°
平近点角 248.112°
近地点: 474.365km
远地点: 476.013km
周期: 94.105分钟
每日圈数: 15.302089
详细信息
固有亮度:
5
最大亮度:
2.5
卫星平台:
Starlink V1.0
覆盖范围:
全球
运营商:
太空探索技术公司
运营商所在国:
美国
制造商(研发单位):
太空探索技术公司
制造商所在国:
美国
使用方式:
暂无
卫星简介
星链(Starlink)计划是由太空探索技术公司(SpaceX)提出的一个巨型低轨卫星互联网星座项目,计划在2019年至2024年间在太空搭建由约1.2万颗卫星组成的“星链”网络,其中1584颗将部署在地球上空550千米处的近地轨道,并从2020年开始工作。该卫星仍在工作。
2D轨道图
3D轨道图
轨道高度分析图
轨道倾角分析图
轨道综合分析图
查看轨道综合分析图